Flag for Germany Weather past 2 weeks in Falkensee, Brandenburg, Germany

Now
55 °F

Fog.


Feels Like: 53 °F
Forecast: 56 / 63 °F
Wind: 8 mph from West

Location: Berlin-Tegel

Current Time: Sep 1, 2014 at 9:57:59 AM

Latest Report: Sep 1, 2014 at 9:20 AM


Visibility: 2 mi

Pressure: 30.01 "Hg

Humidity: 94%

Dew point: 54 °F

Location of FalkenseeLocation

Historic Weather in Falkensee — Graph

°F

Falkensee temperature yesterday

Maximum temperature yesterday: 66 °F (at 3:50 PM)
Minimum temperature yesterday: 55 °F (at 11:20 PM)
Average temperature yesterday: 62 °F

Past Weeks' High & Low Weather Summary

 TemperatureHumidityPressure
High73 °F (Aug 28, 2:50 PM)94% (Aug 19, 10:20 PM)30.07 "Hg (Aug 19, 10:20 PM)
Low45 °F (Aug 27, 5:50 AM)25% (Aug 28, 5:20 PM)29.59 "Hg (Aug 18, 2:50 PM)
Average60 °F65%29.90 "Hg
* Reported Aug 17 8:20 AM — Sep 1 8:50 AM, Falkensee, Weather by CustomWeather, © 2014

Note: Actual official high and low records may vary slightly from our data, if they occured in-between our weather recording intervals... More about our weather records

Advertising

Falkensee weather history for previous 24 hours

 ConditionsComfort  
Time TempWeatherWind HumidityBarometerVisibility
8:50 AM
Sep 1
55 °FFog.5 mph94%30.01 "Hg1 mi
8:20 AM55 °FFog.5 mph94%30.01 "Hg1 mi
7:50 AM55 °FFog.5 mph94%29.98 "Hg1 mi
7:20 AM55 °FFog.5 mph94%29.98 "Hg1 mi
6:50 AM55 °FFog.5 mph94%29.98 "Hg2 mi
6:20 AM55 °FPassing clouds.5 mph94%29.98 "Hg4 mi
5:50 AM55 °FPassing clouds.3 mph94%29.98 "HgN/A
5:20 AM55 °FPassing clouds.5 mph94%29.95 "HgN/A
4:50 AM55 °FPassing clouds.5 mph94%29.95 "HgN/A
4:20 AM55 °FPassing clouds.2 mph88%29.95 "HgN/A
3:50 AM55 °FPassing clouds.3 mph88%29.95 "HgN/A
3:20 AM55 °FClear.3 mph88%29.95 "Hg10 mi
2:50 AM55 °FClear.5 mph88%29.95 "Hg10 mi
2:20 AM55 °FClear.5 mph88%29.95 "Hg10 mi
1:50 AM55 °FClear.5 mph94%29.92 "Hg10 mi
1:20 AM54 °FClear.3 mph94%29.92 "Hg10 mi
12:50 AM55 °FClear.5 mph94%29.92 "Hg10 mi
12:20 AM55 °FClear.3 mph88%29.92 "Hg10 mi
11:50 PM
Aug 31
55 °FPassing clouds.3 mph88%29.92 "HgN/A
11:20 PM55 °FPassing clouds.2 mph88%29.89 "HgN/A
10:50 PM57 °FPartly cloudy.3 mph82%29.89 "HgN/A
10:20 PM61 °FPartly cloudy.2 mph77%29.89 "HgN/A
9:50 PM61 °FPartly cloudy.3 mph77%29.89 "HgN/A
9:20 PM63 °FPartly cloudy.3 mph73%29.89 "HgN/A
8:50 PM63 °FBroken clouds.3 mph73%29.89 "HgN/A
8:20 PM64 °FBroken clouds.2 mph64%29.89 "HgN/A
7:50 PM64 °FPartly sunny.2 mph64%29.86 "HgN/A
7:20 PM66 °FPartly sunny.2 mph56%29.86 "HgN/A
6:50 PM66 °FPartly sunny.3 mph56%29.86 "HgN/A
6:20 PM66 °FPartly sunny.2 mph52%29.86 "HgN/A
5:50 PM66 °FBroken clouds.3 mph56%29.86 "HgN/A
5:20 PM66 °FBroken clouds.2 mph56%29.86 "HgN/A
4:50 PM66 °FPartly sunny.No wind56%29.86 "HgN/A
4:20 PM66 °FPartly sunny.2 mph60%29.86 "HgN/A
3:50 PM66 °FPartly sunny.2 mph64%29.86 "HgN/A
3:20 PM64 °FScattered clouds.2 mph68%29.89 "HgN/A
2:50 PM63 °FScattered clouds.2 mph73%29.89 "HgN/A
2:20 PM63 °FBroken clouds.1 mph77%29.89 "HgN/A
1:50 PM61 °FBroken clouds.3 mph83%29.89 "HgN/A
1:20 PM61 °FLight rain. Broken clouds.5 mph88%29.89 "Hg6 mi
12:50 PM59 °FLight rain. Partly sunny.6 mph94%29.92 "Hg5 mi
12:20 PM59 °FLight rain. Broken clouds.7 mph94%29.92 "Hg5 mi
11:50 AM61 °FLight rain. Broken clouds.6 mph88%29.92 "Hg5 mi
11:20 AM61 °FLight rain. Partly sunny.3 mph88%29.92 "Hg6 mi
10:50 AM61 °FLight rain. Broken clouds.5 mph83%29.92 "Hg6 mi
10:20 AM61 °FLight rain. Partly sunny.6 mph83%29.89 "HgN/A
9:50 AM61 °FPartly sunny.6 mph88%29.89 "HgN/A
9:20 AM61 °FBroken clouds.7 mph88%29.92 "HgN/A
Weather by CustomWeather, © 2014

See weather overviewHow to use our weather pages